(325870) = 2010 TR149 = 2006 XZ33

Discovered at Kitt Peak on 2006-12-11 by Spacewatch.

Orbit

Orbit type: Main Belt

Note: WebGL enabled browser required.

epoch2023-09-13.0
epoch JD2460200.5
perihelion date2019-11-28.61854
perihelion JD2458816.11854
argument of perihelion (°)32.87591
ascending node (°)44.65423
inclination (°)5.22771
eccentricity0.1607307
perihelion distance (AU)2.2395628
Tisserand w.r.t. Jupiter3.4
ΔV w.r.t. Earth (km/sec)9.5
semimajor axis (AU)2.6684674
mean anomaly (°)313.01616
mean daily motion (°/day)0.22610540
aphelion distance (AU)3.097
period (years)4.36
P-vector [x]0.21751298
P-vector [y]0.87469118
P-vector [z]0.43313212
Q-vector [x]-0.97395446
Q-vector [y]0.16538953
Q-vector [z]0.15510967
absolute magnitude17.28
phase slope0.15
uncertainty0
referenceMPEC 2023-Y18
observations used219
oppositions12
arc length (days)9034
first opposition used1999
last opposition used2023
residual rms (arc-secs)0.73
perturbers coarse indicatorM-v
perturbers precise indicator003Ek
first observation date used1999-03-22.0
last observation date used2023-12-15.0
computer nameMPCLINUX
JD of orbit computation2456937.291287
perihelion JD uncertainty (days)1.1258E-04
argument of perihelion uncertainty (°)6.1616E-05
ascending node uncertainty (°)5.6073E-05
inclination uncertainty (°)7.0270E-06
eccentricity uncertainty 6.3582E-08
perihelion distance uncertainty (AU)1.8386E-07
Minimum Orbit Intersection Distances (in AU)
for orbit epoch: 2460200.5, reference: E2023-Y18
Mercury1.93208
Venus1.52032
Earth1.25567
Mars0.67535
Jupiter2.17094
Saturn6.79732
Uranus15.7161
Neptune27.2876

Observations

228 total observations over interval: 1999 03 22.322700 – 2023 12 15.275444
These data are available for download (format description).

Date (UT) J2000 RA J2000 Dec Magn Location Ref
1999 03 22.322700 12 41 20.184 +01 08 00.73 21.20 V 645 – Apache Point-Sloan Digital Sky Survey MPS 355588
1999 03 22.326172 12 41 19.989 +01 08 01.62 21.87   645 – Apache Point-Sloan Digital Sky Survey MPS 355588
2006 12 11.28437 06 35 53.91 +29 36 19.2 20.6 V 691 – Steward Observatory, Kitt Peak-Spacewatch MPS 192634
2006 12 11.30170 06 35 52.97 +29 36 23.3 20.4 V 691 – Steward Observatory, Kitt Peak-Spacewatch MPS 192634
2006 12 11.31909 06 35 51.99 +29 36 27.1 20.5 V 691 – Steward Observatory, Kitt Peak-Spacewatch MPS 192634
2006 12 15.26732 06 32 12.63 +29 51 23.6   691 – Steward Observatory, Kitt Peak-Spacewatch MPS 192634
2006 12 15.28470 06 32 11.58 +29 51 27.6   691 – Steward Observatory, Kitt Peak-Spacewatch MPS 192634
2006 12 15.30208 06 32 10.52 +29 51 31.6   691 – Steward Observatory, Kitt Peak-Spacewatch MPS 192634
2008 04 14.25178 14 16 00.25 -11 44 38.0 21.3 V 691 – Steward Observatory, Kitt Peak-Spacewatch MPS 355588
2008 04 14.26939 14 15 59.30 -11 44 34.7 21.4 V 691 – Steward Observatory, Kitt Peak-Spacewatch MPS 355588
2008 04 14.28698 14 15 58.33 -11 44 31.7 21.3 V 691 – Steward Observatory, Kitt Peak-Spacewatch MPS 355588
2008 05 03.27793 13 58 55.81 -10 44 50.4 21.6 V G96 – Mt. Lemmon Survey MPS 355588
2008 05 03.28468 13 58 55.41 -10 44 49.3 21.7 V G96 – Mt. Lemmon Survey MPS 355588
2008 05 03.29132 13 58 55.02 -10 44 48.1 21.2 V G96 – Mt. Lemmon Survey MPS 355588
2008 05 03.29797 13 58 54.69 -10 44 46.7 21.3 V G96 – Mt. Lemmon Survey MPS 355588
2010 10 12.46574 02 33 26.27 +12 53 06.9 19.2 R H10 – Tzec Maun Observatory, Mayhill MPS 351730
2010 10 12.47119 02 33 26.03 +12 53 07.5 19.6 R H10 – Tzec Maun Observatory, Mayhill MPS 351731
2010 10 12.47727 02 33 25.65 +12 53 06.2 19.4 R H10 – Tzec Maun Observatory, Mayhill MPS 351731
2010 10 12.48341 02 33 25.43 +12 53 04.8 19.6 R H10 – Tzec Maun Observatory, Mayhill MPS 351731
2010 10 12.48833 02 33 25.20 +12 53 06.1 19.8 R H10 – Tzec Maun Observatory, Mayhill MPS 351731
2010 10 13.39322 02 32 44.29 +12 51 53.1 19.3 R H10 – Tzec Maun Observatory, Mayhill MPS 351731
2010 10 13.39928 02 32 43.97 +12 51 52.8 19.2 R H10 – Tzec Maun Observatory, Mayhill MPS 351731
2010 10 13.40588 02 32 43.67 +12 51 52.0 19.4 R H10 – Tzec Maun Observatory, Mayhill MPS 351731
2010 10 13.41208 02 32 43.35 +12 51 52.1 19.3 R H10 – Tzec Maun Observatory, Mayhill MPS 351731
2010 10 15.30167 02 31 14.60 +12 49 10.4 19.6 R H10 – Tzec Maun Observatory, Mayhill MPS 351731
2010 10 15.30883 02 31 14.15 +12 49 10.9 19.6 R H10 – Tzec Maun Observatory, Mayhill MPS 351731
2010 10 15.31578 02 31 13.80 +12 49 10.4 19.4 R H10 – Tzec Maun Observatory, Mayhill MPS 351731
2010 10 15.32246 02 31 13.42 +12 49 09.5 19.5 R H10 – Tzec Maun Observatory, Mayhill MPS 351731
2010 10 15.32856 02 31 13.14 +12 49 09.1 19.7 R H10 – Tzec Maun Observatory, Mayhill MPS 351731
2010 10 15.47180 02 31 06.01 +12 48 55.8 19.0 R H10 – Tzec Maun Observatory, Mayhill MPS 351731
2010 10 15.47862 02 31 05.61 +12 48 55.9 19.5 R H10 – Tzec Maun Observatory, Mayhill MPS 351731
2010 10 15.48588 02 31 05.15 +12 48 55.1 19.5 R H10 – Tzec Maun Observatory, Mayhill MPS 351731
2010 10 15.49314 02 31 04.79 +12 48 53.7 19.5 R H10 – Tzec Maun Observatory, Mayhill MPS 351731
2010 10 28.31162 02 19 32.26 +12 25 54.6 19.7 V 703 – Catalina Sky Survey MPS 351731
2010 10 28.31909 02 19 31.87 +12 25 54.5 19.9 V 703 – Catalina Sky Survey MPS 351731
2010 10 28.32655 02 19 31.29 +12 25 53.7 19.4 V 703 – Catalina Sky Survey MPS 351731
2010 10 28.33409 02 19 30.93 +12 25 52.3 19.3 V 703 – Catalina Sky Survey MPS 351731
2010 10 28.35809 02 19 29.49 +12 25 49.4 19.2 V G96 – Mt. Lemmon Survey MPS 351731
2010 10 28.36329 02 19 29.17 +12 25 48.7 19.2 V G96 – Mt. Lemmon Survey MPS 351731
2010 10 28.36848 02 19 28.88 +12 25 48.2 19.3 V G96 – Mt. Lemmon Survey MPS 351731
2010 10 28.37369 02 19 28.56 +12 25 47.3 19.2 V G96 – Mt. Lemmon Survey MPS 351731
2010 11 01.26324 02 15 43.45 +12 18 03.2 20.0 V 703 – Catalina Sky Survey MPS 353937
2010 11 01.27165 02 15 42.98 +12 18 02.8 19.7 V 703 – Catalina Sky Survey MPS 353937
2010 11 01.28009 02 15 42.37 +12 18 01.8 19.8 V 703 – Catalina Sky Survey MPS 353937
2010 11 01.28857 02 15 41.97 +12 18 01.2 19.9 V 703 – Catalina Sky Survey MPS 353937
2010 11 03.16447 02 13 53.68 +12 14 20.4 19.8 V 703 – Catalina Sky Survey MPS 355588
2010 11 03.16846 02 13 53.50 +12 14 18.4 19.6 V 703 – Catalina Sky Survey MPS 355588
2010 11 03.17250 02 13 53.11 +12 14 19.7 20.0 V 703 – Catalina Sky Survey MPS 355588
2010 11 03.17652 02 13 52.93 +12 14 16.8 19.8 V 703 – Catalina Sky Survey MPS 355588
2010 11 04.26946 02 12 49.86 +12 12 11.7 20.3   704 – Lincoln Laboratory ETS, New Mexico MPS 353937
2010 11 04.28203 02 12 49.08 +12 12 10.0 20.1   704 – Lincoln Laboratory ETS, New Mexico MPS 353937
2010 11 04.29459 02 12 48.40 +12 12 07.5 19.8   704 – Lincoln Laboratory ETS, New Mexico MPS 353937
2010 11 05.49026 02 11 40.49 +12 09 56.8 19.3 R D96 – Tzec Maun Observatory, Moorook MPS 355588
2010 11 05.50159 02 11 39.76 +12 09 56.7 19.3 R D96 – Tzec Maun Observatory, Moorook MPS 355588
2010 11 05.51290 02 11 39.14 +12 09 55.4 19.1 R D96 – Tzec Maun Observatory, Moorook MPS 355588
2010 11 11.19493 02 06 25.99 +11 59 52.9 19.8 V G96 – Mt. Lemmon Survey MPS 355588
2010 11 11.20130 02 06 25.70 +11 59 52.0 19.7 V G96 – Mt. Lemmon Survey MPS 355588
2010 11 11.20759 02 06 25.34 +11 59 51.7 19.9 V G96 – Mt. Lemmon Survey MPS 355588
2010 11 11.21393 02 06 24.98 +11 59 50.7 20.3 V G96 – Mt. Lemmon Survey MPS 355588
2010 11 28.14264 01 54 27.97 +11 46 14.1 20.4 V G96 – Mt. Lemmon Survey MPS 359208
2010 11 28.14932 01 54 27.79 +11 46 13.9 20.5 V G96 – Mt. Lemmon Survey MPS 359208
2010 11 28.14980 01 54 27.79 +11 46 14.1 20.5 V G96 – Mt. Lemmon Survey MPS 359208
2010 11 28.15596 01 54 27.57 +11 46 14.3 20.4 V G96 – Mt. Lemmon Survey MPS 359208
2010 11 28.15648 01 54 27.57 +11 46 14.0 20.4 V G96 – Mt. Lemmon Survey MPS 359208
2010 11 28.16265 01 54 27.36 +11 46 13.9 20.0 V G96 – Mt. Lemmon Survey MPS 359208
2010 11 28.16318 01 54 27.36 +11 46 13.9 20.5 V G96 – Mt. Lemmon Survey MPS 359208
2010 12 03.31608 01 52 18.90 +11 48 47.6 21.1 V 291 – LPL/Spacewatch II MPS 359209
2010 12 03.32843 01 52 18.62 +11 48 48.5 21.6 V 291 – LPL/Spacewatch II MPS 359209
2010 12 03.34411 01 52 18.27 +11 48 49.2 21.2 V 291 – LPL/Spacewatch II MPS 359209
2012 03 13.93705 12 16 51.63 +04 38 34.6 20.6 V A13 – Observatoire Naef, Ependes MPS 416182
2012 03 13.95907 12 16 50.44 +04 38 41.2 20.8 V A13 – Observatoire Naef, Ependes MPS 416182
2012 03 24.35074 12 07 29.85 +05 24 30.7 20.3 V G96 – Mt. Lemmon Survey MPS 418550
2012 03 24.35837 12 07 29.42 +05 24 32.2 20.0 V G96 – Mt. Lemmon Survey MPS 418550
2012 03 24.36647 12 07 28.99 +05 24 34.8 21.0 V G96 – Mt. Lemmon Survey MPS 418550
2012 03 24.37405 12 07 28.59 +05 24 36.5 20.3 V G96 – Mt. Lemmon Survey MPS 418550
2012 03 27.33406 12 04 50.244 +05 36 17.04 21.3 w F51 – Pan-STARRS 1, Haleakala MPS 418550
2012 03 27.34851 12 04 49.468 +05 36 20.00 21.4 w F51 – Pan-STARRS 1, Haleakala MPS 418550
2012 03 27.36293 12 04 48.665 +05 36 23.52 21.6 w F51 – Pan-STARRS 1, Haleakala MPS 418550
2012 03 27.37741 12 04 47.862 +05 36 27.13 21.3 w F51 – Pan-STARRS 1, Haleakala MPS 418550
2014 09 12.43420 23 29 31.145 -10 57 52.94 20.6 i F51 – Pan-STARRS 1, Haleakala MPS 532999
2014 09 12.44477 23 29 30.560 -10 57 55.84 20.7 i F51 – Pan-STARRS 1, Haleakala MPS 532999
2014 09 12.45535 23 29 29.962 -10 57 58.62 20.7 i F51 – Pan-STARRS 1, Haleakala MPS 532999
2014 09 19.38516 23 23 17.681 -11 26 52.37 20.9 w F51 – Pan-STARRS 1, Haleakala MPS 536324
2014 09 19.39516 23 23 17.122 -11 26 54.62 20.7 w F51 – Pan-STARRS 1, Haleakala MPS 536324
2014 09 19.40514 23 23 16.571 -11 26 57.02 20.6 w F51 – Pan-STARRS 1, Haleakala MPS 536324
2014 09 23.37295 23 19 47.285 -11 41 08.54 21.0 w F51 – Pan-STARRS 1, Haleakala MPS 536324
2014 09 23.38289 23 19 46.747 -11 41 10.08 20.8 w F51 – Pan-STARRS 1, Haleakala MPS 536324
2014 09 23.40278 23 19 45.677 -11 41 14.31 20.6 w F51 – Pan-STARRS 1, Haleakala MPS 536324
2015 11 08.50335 09 23 58.15 +20 47 33.0 21.8 V G96 – Mt. Lemmon Survey MPS 650152
2015 11 08.50843 09 23 58.51 +20 47 30.4 21.9 V G96 – Mt. Lemmon Survey MPS 650152
